When you browse on this site, cookies collect data to enhance your experience and personalize the content and advertising you see.
Visit our Privacy Policy to learn more. By continuing to use the site, you agree to this use of cookies and data.
  • In Portugal
  • List of Countries
  • For 7 days
  • Water Temperature
  • Satellite Maps
  • Weather Map
  • Weather Widgets
  • user-avatar
    Login

    Hourly Weather Plociczno

    Today, 18 April, Thursday

    Time Temperature Precipitation Wind Pressure Humidity
    00:00 +8°C° 0 mm 2 mps 757 mmHg 76%
    01:00 +8°C° 0 mm 2 mps 757 mmHg 78%
    02:00 +7°C° 0 mm 2 mps 757 mmHg 80%
    03:00 +8°C° 0 mm 1 mps 757 mmHg 81%
    04:00 +8°C° 0 mm 1 mps 757 mmHg 83%
    05:00 +7°C° 0 mm 1 mps 757 mmHg 85%
    06:00 +9°C° 0 mm 1 mps 758 mmHg 79%
    07:00 +10°C° 0 mm 1 mps 758 mmHg 73%
    08:00 +12°C° 0 mm 1 mps 758 mmHg 65%
    09:00 +14°C° 0 mm 2 mps 758 mmHg 59%
    10:00 +15°C° 0 mm 2 mps 758 mmHg 52%
    11:00 +17°C° 0 mm 2 mps 759 mmHg 45%
    12:00 +17°C° 0 mm 3 mps 758 mmHg 43%
    13:00 +18°C° 0 mm 3 mps 758 mmHg 40%
    14:00 +19°C° 0 mm 3 mps 758 mmHg 37%
    15:00 +18°C° 0 mm 3 mps 758 mmHg 38%
    16:00 +18°C° 0 mm 4 mps 758 mmHg 39%
    17:00 +18°C° 0 mm 4 mps 757 mmHg 40%
    18:00 +15°C° 0 mm 4 mps 758 mmHg 47%
    19:00 +13°C° 0 mm 3 mps 758 mmHg 54%
    20:00 +11°C° 0 mm 3 mps 758 mmHg 61%
    21:00 +10°C° 0 mm 3 mps 758 mmHg 62%
    22:00 +9°C° 0 mm 3 mps 758 mmHg 63%
    23:00 +8°C° 0 mm 3 mps 758 mmHg 64%

    Tomorrow, 19 April, Friday

    Time Temperature Precipitation Wind Pressure Humidity
    00:00 +7°C° 0 mm 3 mps 759 mmHg 66%
    01:00 +7°C° 0 mm 3 mps 759 mmHg 67%
    02:00 +5°C° 0 mm 3 mps 759 mmHg 69%
    03:00 +6°C° 0 mm 2 mps 759 mmHg 72%
    04:00 +5°C° 0 mm 2 mps 759 mmHg 75%
    05:00 +5°C° 0 mm 2 mps 759 mmHg 79%
    06:00 +6°C° 0 mm 2 mps 759 mmHg 74%
    07:00 +8°C° 0 mm 2 mps 759 mmHg 69%
    08:00 +9°C° 0 mm 2 mps 760 mmHg 65%
    09:00 +12°C° 0 mm 2 mps 760 mmHg 58%
    10:00 +13°C° 0 mm 3 mps 760 mmHg 51%
    11:00 +16°C° 0 mm 3 mps 760 mmHg 44%
    12:00 +16°C° 0 mm 3 mps 760 mmHg 41%
    13:00 +17°C° 0 mm 3 mps 759 mmHg 39%
    14:00 +17°C° 0 mm 3 mps 759 mmHg 37%
    15:00 +17°C° 0 mm 3 mps 759 mmHg 38%
    16:00 +17°C° 0 mm 3 mps 758 mmHg 39%
    17:00 +17°C° 0 mm 3 mps 758 mmHg 40%
    18:00 +14°C° 0 mm 3 mps 758 mmHg 47%
    19:00 +13°C° 0 mm 2 mps 758 mmHg 54%
    20:00 +12°C° 0 mm 2 mps 758 mmHg 61%
    21:00 +10°C° 0 mm 2 mps 758 mmHg 65%
    22:00 +9°C° 0 mm 2 mps 758 mmHg 68%
    23:00 +8°C° 0 mm 2 mps 758 mmHg 72%

    Day after tomorrow, 20 April, Saturday

    Time Temperature Precipitation Wind Pressure Humidity
    00:00 +7°C° 0 mm 2 mps 758 mmHg 73%
    01:00 +7°C° 0 mm 2 mps 758 mmHg 73%
    02:00 +7°C° 0 mm 2 mps 758 mmHg 74%
    03:00 +6°C° 0 mm 2 mps 757 mmHg 73%
    04:00 +6°C° 0 mm 2 mps 757 mmHg 73%
    05:00 +5°C° 0 mm 2 mps 757 mmHg 72%
    06:00 +7°C° 0 mm 2 mps 757 mmHg 68%
    07:00 +8°C° 0 mm 2 mps 757 mmHg 65%
    08:00 +9°C° 0 mm 3 mps 757 mmHg 62%
    09:00 +10°C° 0 mm 3 mps 757 mmHg 58%
    10:00 +12°C° 0 mm 3 mps 756 mmHg 54%
    11:00 +13°C° 0 mm 4 mps 756 mmHg 51%
    12:00 +14°C° 0 mm 4 mps 756 mmHg 48%
    13:00 +15°C° 0 mm 4 mps 755 mmHg 45%
    14:00 +15°C° 0 mm 4 mps 755 mmHg 42%
    15:00 +15°C° 0 mm 4 mps 755 mmHg 43%
    16:00 +15°C° 0 mm 4 mps 754 mmHg 44%
    17:00 +15°C° 0 mm 4 mps 754 mmHg 44%
    18:00 +13°C° 0 mm 4 mps 754 mmHg 52%
    19:00 +12°C° 0 mm 3 mps 754 mmHg 60%
    20:00 +10°C° 0 mm 3 mps 754 mmHg 67%
    21:00 +9°C° 0 mm 3 mps 754 mmHg 72%
    22:00 +8°C° 0 mm 3 mps 754 mmHg 76%
    23:00 +7°C° 0 mm 3 mps 753 mmHg 80%

    21 April, Sunday

    Time Temperature Precipitation Wind Pressure Humidity
    00:00 +7°C° 0 mm 2 mps 753 mmHg 79%
    01:00 +7°C° 0 mm 2 mps 753 mmHg 78%
    02:00 +8°C° 0 mm 2 mps 753 mmHg 77%
    03:00 +7°C° 0.1 mm 2 mps 752 mmHg 79%
    04:00 +7°C° 0.1 mm 2 mps 752 mmHg 80%
    05:00 +7°C° 0.1 mm 2 mps 752 mmHg 82%
    06:00 +7°C° 0.3 mm 2 mps 751 mmHg 82%
    07:00 +7°C° 0.3 mm 3 mps 751 mmHg 83%
    08:00 +7°C° 0.3 mm 3 mps 751 mmHg 83%
    09:00 +8°C° 0.3 mm 3 mps 751 mmHg 78%
    10:00 +9°C° 0.3 mm 3 mps 751 mmHg 73%
    11:00 +11°C° 0.3 mm 3 mps 751 mmHg 68%
    12:00 +11°C° 0.6 mm 3 mps 750 mmHg 62%
    13:00 +12°C° 0.6 mm 3 mps 750 mmHg 57%
    14:00 +13°C° 0.6 mm 3 mps 750 mmHg 52%
    15:00 +12°C° 0.2 mm 3 mps 749 mmHg 52%
    16:00 +12°C° 0.2 mm 3 mps 749 mmHg 52%
    17:00 +12°C° 0.2 mm 3 mps 749 mmHg 53%
    18:00 +12°C° 0.4 mm 2 mps 749 mmHg 60%
    19:00 +10°C° 0.4 mm 2 mps 749 mmHg 68%
    20:00 +8°C° 0.4 mm 2 mps 749 mmHg 76%
    21:00 +8°C° 0.1 mm 2 mps 749 mmHg 78%
    22:00 +7°C° 0.1 mm 2 mps 749 mmHg 80%
    23:00 +7°C° 0.1 mm 2 mps 749 mmHg 81%

    22 April, Monday

    Time Temperature Precipitation Wind Pressure Humidity
    00:00 +6°C° 0 mm 2 mps 749 mmHg 85%
    01:00 +5°C° 0 mm 3 mps 749 mmHg 89%
    02:00 +5°C° 0 mm 3 mps 749 mmHg 93%
    03:00 +5°C° 0 mm 3 mps 750 mmHg 94%
    04:00 +5°C° 0 mm 4 mps 750 mmHg 94%
    05:00 +5°C° 0 mm 4 mps 750 mmHg 95%
    06:00 +6°C° 0 mm 5 mps 750 mmHg 90%
    07:00 +7°C° 0 mm 5 mps 751 mmHg 86%
    08:00 +8°C° 0 mm 6 mps 751 mmHg 82%
    09:00 +9°C° 0 mm 6 mps 751 mmHg 75%
    10:00 +11°C° 0 mm 6 mps 752 mmHg 68%
    11:00 +13°C° 0 mm 6 mps 752 mmHg 61%
    12:00 +14°C° 0.1 mm 6 mps 752 mmHg 58%
    13:00 +15°C° 0.1 mm 7 mps 752 mmHg 55%
    14:00 +15°C° 0.1 mm 7 mps 752 mmHg 52%
    15:00 +15°C° 0.1 mm 7 mps 752 mmHg 53%
    16:00 +15°C° 0.1 mm 6 mps 752 mmHg 54%
    17:00 +15°C° 0.1 mm 6 mps 751 mmHg 55%
    18:00 +13°C° 0 mm 6 mps 752 mmHg 60%
    19:00 +12°C° 0 mm 5 mps 752 mmHg 65%
    20:00 +10°C° 0 mm 5 mps 752 mmHg 71%
    21:00 +9°C° 0 mm 5 mps 753 mmHg 71%
    22:00 +9°C° 0 mm 5 mps 753 mmHg 72%
    23:00 +8°C° 0 mm 6 mps 753 mmHg 72%

    23 April, Tuesday

    Time Temperature Precipitation Wind Pressure Humidity
    00:00 +8°C° 0 mm 5 mps 753 mmHg 72%
    01:00 +8°C° 0 mm 5 mps 754 mmHg 72%
    02:00 +7°C° 0 mm 5 mps 754 mmHg 72%
    03:00 +7°C° 0 mm 5 mps 754 mmHg 72%
    04:00 +5°C° 0 mm 6 mps 754 mmHg 72%
    05:00 +5°C° 0 mm 6 mps 754 mmHg 72%
    06:00 +6°C° 0 mm 7 mps 754 mmHg 67%
    07:00 +8°C° 0 mm 7 mps 754 mmHg 62%
    08:00 +9°C° 0 mm 8 mps 754 mmHg 58%
    09:00 +10°C° 0 mm 9 mps 754 mmHg 53%
    10:00 +12°C° 0 mm 9 mps 754 mmHg 49%
    11:00 +13°C° 0 mm 9 mps 754 mmHg 45%
    12:00 +15°C° 0 mm 9 mps 754 mmHg 44%
    13:00 +15°C° 0 mm 9 mps 753 mmHg 43%
    14:00 +16°C° 0 mm 9 mps 753 mmHg 42%
    15:00 +16°C° 0 mm 9 mps 753 mmHg 43%
    16:00 +16°C° 0 mm 8 mps 752 mmHg 44%
    17:00 +15°C° 0 mm 8 mps 752 mmHg 45%
    18:00 +14°C° 0 mm 7 mps 752 mmHg 48%
    19:00 +13°C° 0 mm 6 mps 752 mmHg 52%
    20:00 +11°C° 0 mm 6 mps 752 mmHg 56%
    21:00 +10°C° 0 mm 6 mps 752 mmHg 57%
    22:00 +10°C° 0 mm 6 mps 752 mmHg 58%
    23:00 +9°C° 0 mm 6 mps 752 mmHg 59%
    Show more